Regional Weather Roundup
Issued by NWS New Orleans/Baton Rouge, LA

Home | Current Version | Previous Version | Text Only | Print | Product List | Glossary On
Versions: 1 2 3 4 5 6 7 8 9 10 11 12 13 14 15 16 17 18 19 20 21 22 23 24 25 26 27 28 29 30 31 32 33 34 35 36 37 38 39 40 41 42 43 44 45 46 47 48 49 50
359
ASUS44 KLIX 020005
RWRLIX
NEW ORLEANS REGIONAL WEATHER ROUNDUP
NATIONAL WEATHER SERVICE NEW ORLEANS LA
700 PM CDT FRI AUG 01 2014

NOTE: "FAIR" INDICATES FEW OR NO CLOUDS BELOW 12,000 FEET WITH NO
      SIGNIFICANT WEATHER AND/OR OBSTRUCTIONS TO VISIBILITY.
      SKY/WX - SKY CONDITION AND SIGNIFICANT WEATHER.
      TMP - AIR TEMPERATURE.     DP    - DEWPOINT TEMPERATURE.
      RH  - RELATIVE HUMIDITY.   PRES  - PRESSURE.
      HI  - HEAT INDEX.          WCI   - WIND CHILL INDEX.

*  THESE STATIONS ARE NOT NWS OR FAA STATIONS AND ARE NOT UNDER
   NWS QUALITY CONTROL.

LAZ038-040-048-061>063-065>067-069-020100-
SOUTHEAST LOUISIANA

CITY           SKY/WX    TMP DP  RH WIND       PRES   REMARKS
N.O. AUDUBON     N/A     87  67  51 MISG        N/A
6HR MIN TEMP:  85; 6HR MAX TEMP:  91;

N.O. INTL ARPT PTSUNNY   85  67  54 S7        29.96S
6HR MIN TEMP:  84; 6HR MAX TEMP:  89;

N.O. LAKEFRONT PTSUNNY   83  72  69 E13       29.96S
6HR MIN TEMP:  83; 6HR MAX TEMP:  87;

N.O. DOWNTOWN*   N/A     84  66  54 S3        29.96F
6HR MIN TEMP:  84; 6HR MAX TEMP:  90;

SLIDELL        PTSUNNY   81  68  64 E3        29.96S
6HR MIN TEMP:  81; 6HR MAX TEMP:  86; 6HR PCP: TRACE;

BATON ROUGE    PTSUNNY   79  73  82 E6        29.95S
6HR MIN TEMP:  74; 6HR MAX TEMP:  86; 6HR PCP:  0.30;

BOOTHVILLE     CLOUDY    82  70  66 E6        29.97S
6HR MIN TEMP:  82; 6HR MAX TEMP:  88;

BELLE CHASSE   CLOUDY    84  65  52 S6        29.95S
6HR MIN TEMP:  84; 6HR MAX TEMP:  89;

BOGALUSA*        N/A     81  72  74 NE3       29.99S
6HR MIN TEMP:  79; 6HR MAX TEMP:  84;

GALLIANO*      NOT AVBL
NEW ROADS*     MOCLDY    79  72  79 SE7       29.94S
6HR MIN TEMP:  77; 6HR MAX TEMP:  82; 6HR PCP:  0.09;

GONZALES*      CLOUDY    80  78  94 CALM      29.95S
6HR MIN TEMP:  77; 6HR MAX TEMP:  86; 6HR PCP:  0.07;

HAMMOND*       CLOUDY    82  72  69 E3        29.98S
HOUMA*         PTSUNNY   84  68  58 SE3       29.95S
PORT FOURCHON* CLEAR     84  68  58 SE3       29.98R

$$

MSZ070-080>082-020100-
SOUTHERN MISSISSIPPI

CITY           SKY/WX    TMP DP  RH WIND       PRES   REMARKS
MCCOMB         LGT RAIN  74  70  87 CALM      29.98F FOG
6HR MIN TEMP:  73; 6HR MAX TEMP:  75; 6HR PCP:  0.13;

GULFPORT       CLOUDY    84  68  58 NE3       29.96F
6HR MIN TEMP:  84; 6HR MAX TEMP:  89; 6HR PCP: TRACE;

BILOXI         CLOUDY    81  69  67 NE5       29.97S
6HR MIN TEMP:  81; 6HR MAX TEMP:  85;

PASCAGOULA     CLOUDY    79  70  74 CALM      29.97F
6HR MIN TEMP:  79; 6HR MAX TEMP:  87;


$$

COASTAL OBSERVATIONS
LAKE AND NEARSHORE STATIONS

STATION/POSITION TIME  TEMP    WIND        PRES    WAVE
                       AIR SEA DIR/SP/G            HT/PER
                 (UTC) (F)     (DEG/KT/KT) (MB)    (FT/S)
PASCAGOULA       0000   83      10/  6/  7 1014.3
WAVELAND YACHT   0000   81     110/  6/  7 1014.1
GRAND ISLE       0000   83 86  120/  2/  6 1015.1
SOUTHWEST PASS   0000   86 86  100/  5/  6 1014.9
NEW CANAL        0000   84 83   90/  2/  5 1014.8
SHELL BEACH      0000   83 82  130/  6/  7 1014.5

OFFSHORE STATIONS

STATION/POSITION TIME  TEMP    WIND        PRES    WAVE
                       AIR SEA DIR/SP/G            HT/PER
                 (UTC) (F)     (DEG/KT/KT) (MB)    (FT/S)
64 S DAUPHIN ISL 2246   82 87  340/  6/  8 1015.0

$$




USA.gov is the U.S. government's official web portal to all federal, state and local government web resources and services.